Create Custom Reports and Graphics: Custom Report

North Region Latest Observations

Map

10 Minute Data

Winnemucca/Elko Latest Observations

Map

10 Minute Data

South Region Latest Observations

Map

10 Minute Data

Latest Observation

65 Stations

10 Minute Data
as of 5/5/26 12:42 AM PDT
Station Date Time Temp (°F) RH (%) Dew Pt (°F) Wind Spd (mph) Wind Dir (°) Wind Gust (mph) Wind Gst Dir (°) Latest Rain (In) Soil Moist (%) Soil Temp (°F) Daily Rain (In) Daily Min Temp (°F) Daily Max Temp (°F) Daily Max Wind (mph)
Hobart Mills 5/5/26 0040 35.9   1.0 100   1 35.9   0.8 0.0   0.0 N | 0 0.0   0.0 N | 10 0.00 - 32.0   0.0 0.03 34.4   2.5 45.9   15.6 6.0   7.2
Prosser Dam 5/5/26 0040 36.7   2.5 97   0 36.0   2.5 2.0   1.9 WSW | 242 3.4   2.6 WSW | 240 0.00 21.7   0.9 47.3   1.9 0.63 36.0   2.6 46.8   17.4 14.3   17.3
West Incline Village 5/5/26 0040 32.7   5.8 98   4 32.2   4.7 0.0   0.7 N | 0 0.0   3.7 ENE | 77 0.00 35.9   5.2 43.8   0.8 0.60 31.6   5.2 41.3   17.2 10.6   18.1
Incline Village (Fairview Blvd) 5/5/26 0040 33.4   6.8 99   9 33.2   4.4 0.0   0.0 N | 0 0.0   0.0 N | 4 0.01 30.7   4.8 50.5   1.5 0.60 32.1   6.5 42.0   18.2 6.3   11.8
Incline Village (Diamond Peak) 5/5/26 0040 31.9   6.5 99   10 31.7   3.8 0.0   1.3 N | 0 0.0   2.4 NW | 323 0.00 8.1   0.3 42.4   2.9 0.01 31.3   5.1 39.6   15.2 6.0   13.5
Incline Village (Mill Creek) 5/5/26 0040 34.4   6.2 98   6 33.8   4.5 0.0   0.0 N | 0 0.0   0.0 ENE | 68 0.01 10.6   0.9 45.8   0.5 0.88 32.3   6.7 43.6   16.0 5.2   16.5
Incline Village (Lakeshore Blvd) 5/5/26 0040 36.0   5.2 100   8 35.9   2.9 0.5   0.5 NE | 46 2.4   2.4 ENE | 65 0.01 39.1   4.5 46.4   5.4 0.90 33.4   7.3 45.9   17.1 7.7   16.0
Glenbrook 5/5/26 0040 34.6   6.0 96   6 33.7   4.3 1.3   1.2 SE | 145 3.0   1.6 S | 183 0.02 44.3   0.0 44.8   0.5 0.89 32.5   7.4 45.3   14.9 7.6   14.2
Zephyr Cove 5/5/26 0040 33.1   8.3 98   13 32.7   4.7 0.0   0.0 N | 0 0.0   0.0 ENE | 66 0.00 - 34.3   0.0 0.00 33.1   8.0 44.1   16.0 4.2   1.9
Kingsbury Grade 5/5/26 0040 32.3   6.5 98   5 31.7   5.2 0.0   0.0 N | 0 0.0   0.0 NNW | 342 0.00 6.9   2.0 49.1   4.3 0.17 32.3   6.4 43.1   14.0 7.6   16.3
South Daggett Pass (Ridge) 5/5/26 0040 31.5   6.6 100   11 31.5   3.6 0.0   2.3 N | 0 0.0   9.1 WSW | 248 0.00 6.4   0.1 46.9   1.7 0.14 30.9   6.2 40.1   13.0 24.7   0.9
Palomino Valley 5/5/26 0040 46.8   2.8 84   22 42.1   5.2 0.8   0.1 NNW | 347 5.0   0.9 NNW | 335 0.00 6.8   0.0 63.5   0.8 0.27 44.9   3.3 64.6   9.6 31.6   14.3
East Cold Springs 5/5/26 0040 42.2   2.2 87   11 38.6   1.2 5.2   3.3 WNW | 293 8.8   3.1 WNW | 302 0.01 1.6   0.1 54.7   1.1 0.50 40.8   3.4 59.1   9.0 25.6   12.8
Peavine 5/5/26 0040 40.3   3.8 90   20 37.5   2.8 1.1   3.2 SSW | 204 4.5   0.9 S | 186 0.00 - 53.4   0.0 0.64 39.8   2.0 54.2   9.7 33.7   19.5
West Verdi Peak 5/5/26 0040 37.9   6.5 90   22 35.2   0.6 1.9   0.3 NNW | 337 5.0   0.9 NNW | 339 0.00 19.9   3.6 49.8   1.3 0.68 35.4   5.4 49.3   15.7 20.2   6.6
West Verdi 5/5/26 0040 40.6   5.0 92   15 38.4   0.2 0.7   0.1 NW | 306 6.0   3.7 NW | 304 0.00 8.4   0.7 57.9   2.4 0.50 39.7   5.2 55.5   13.1 32.8   4.0
South Verdi 5/5/26 0040 41.7   6.7 80   15 35.9   1.2 13.0   5.0 WSW | 248 16.4   8.6 WSW | 248 0.00 16.8   0.6 51.6   4.9 0.40 39.9   5.9 49.7   16.2 41.5   17.5
Northwest Reno 5/5/26 0040 43.3   8.4 86   31 39.6   3.0 6.6   6.4 WNW | 296 12.2   5.6 W | 277 0.00 23.5   0.4 59.7   2.6 0.26 42.8   5.9 55.4   14.2 49.6   10.5
North Lawton 5/5/26 0040 42.2   6.6 81   16 36.8   0.9 8.6   1.8 WSW | 254 11.8   2.0 WSW | 244 0.00 - 39.1   0.0 0.38 41.6   5.2 54.8   16.1 30.9   9.3
West Reno (Mogul) 5/5/26 0040 43.4   4.4 82   13 38.3   0.2 0.0   4.8 WNW | 285 1.4   7.2 W | 280 0.00 38.5   0.1 60.4   0.7 0.30 42.7   4.2 58.4   10.4 28.9   20.7
Caughlin (Hunter Lake Trail) 9/16/25 0800 59.7   3.5 41   11 35.9   2.7 0.0   0.0 N | 0 0.0   0.0 ENE | 66 0.00 15.7   0.0 69.8   0.5 0.00 55.7   3.2 67.7   9.1 9.4   0.9
ArrowCreek 5/5/26 0040 44.9   5.1 88   30 41.5   5.9 1.0   1.0 SSW | 198 3.7   0.9 SSW | 199 0.00 - 32.0   0.0 0.49 43.3   4.1 55.7   13.8 30.3   26.7
Tracy 5/5/26 0040 48.5   5.6 82   26 43.4   4.6 8.1   0.0 W | 271 12.8   0.2 W | 276 0.00 7.8   0.1 62.2   1.7 0.37 47.7   3.4 62.6   11.2 22.6   25.2
Virginia Highlands 5/5/26 0040 41.6   4.5 93   26 39.6   4.1 6.7   3.5 W | 274 13.7   7.6 WSW | 258 0.00 10.0   2.8 56.1   0.8 0.40 40.3   4.4 52.0   13.2 20.5   20.6
Virginia City 5/5/26 0040 38.7   7.5 97   34 37.9   3.6 4.9   1.8 S | 169 8.9   2.1 S | 184 0.00 8.2   0.1 52.8   2.9 0.40 38.6   6.7 49.5   14.3 26.1   20.6
Six Mile Canyon 9/9/25 0630 60.2   9.6 37   6 33.7   4.8 4.1   2.5 W | 277 6.1   2.9 WNW | 286 0.00 12.5   0.0 75.5   0.7 0.00 57.9   7.6 64.4   1.9 7.0   3.9
Mt Rose Highway 4/30/26 0510 40.8   4.7 47   13 22.3   1.3 2.3   0.2 WSW | 243 4.8   2.1 WSW | 246 0.00 24.1   0.3 43.0   0.8 0.00 40.5   4.7 43.0   5.3 7.7   0.4
Pleasant Valley 5/5/26 0040 44.1   3.6 90   22 41.4   3.7 4.4   1.3 WSW | 253 7.3   1.4 WSW | 244 0.01 2.8   0.0 59.6   3.3 0.37 43.3   2.5 53.2   17.9 19.9   24.8
New Washoe City 5/5/26 0040 43.0   4.3 90   17 40.4   1.2 0.0   0.0 N | 0 0.0   0.0 NW | 310 0.01 4.4   0.1 57.0   1.6 0.43 42.4   1.8 52.1   16.0 14.5   22.1
Franktown Creek 5/5/26 0040 43.1   3.3 97   22 42.2   3.3 1.8   0.7 NW | 319 4.2   1.0 NW | 316 0.01 10.9   0.3 54.3   1.9 0.54 42.6   1.5 52.1   15.1 13.7   14.9
Musgrove Creek 5/5/26 0040 41.3   6.1 93   34 39.5   5.4 0.3   0.9 NW | 307 2.0   2.7 WNW | 291 0.03 44.8   1.1 52.4   0.7 0.61 41.2   1.9 51.9   12.2 25.5   1.1
East Carson 11/23/24 0110 28.6   28.4 - - 4.7   11.0 SW | 220 14.7   10.1 SW | 219 0.02 - 50.9   0.1 0.02 -25.9   79.1 42.9   14.6 16.0   10.7
Kings Canyon 5/5/26 0040 41.8   7.4 95   30 40.4   2.6 1.9   0.3 WSW | 249 5.2   1.4 W | 280 0.03 15.1   0.1 54.6   2.6 0.55 41.7   3.4 54.3   11.0 14.2   14.9
Carson City (Voltaire Canyon) 5/5/26 0040 42.3   8.1 86   23 38.5   0.0 8.2   2.4 SW | 231 11.6   3.6 SW | 229 0.00 2.8   0.0 61.1   1.2 0.00 42.1   7.1 54.4   12.8 24.3   40.5
Jacks Valley 5/5/26 0040 42.4   6.4 89   23 39.4   1.2 3.3   1.5 E | 95 5.3   0.7 SSW | 213 0.06 9.6   0.1 56.4   4.9 0.34 42.0   4.1 53.6   13.5 29.1   6.5
Genoa 5/5/26 0040 43.9   5.0 95   24 42.6   2.7 0.0   0.0 N | 0 0.0   0.0 SSW | 206 0.02 7.6   2.1 51.7   4.1 0.21 43.8   3.2 56.2   11.9 20.0   0.4
South Genoa (Walleys Hot Springs) 5/5/26 0040 45.4   2.7 86   11 41.5   0.9 5.3   0.7 NW | 320 8.1   3.7 NW | 323 0.01 13.5   0.1 61.2   2.2 0.17 44.0   2.2 57.0   10.3 31.7   5.3
SW Gardnerville (HWY 88) 5/5/26 0040 44.8   2.1 85   3 40.5   1.1 3.6   1.1 N | 2 5.5   2.1 NNW | 342 0.00 3.3   0.1 55.0   2.0 0.00 42.0   2.0 56.0   9.1 28.3   19.8
Sheridan 5/5/26 0040 44.6   1.5 91   15 42.0   3.2 1.4   2.1 ENE | 70 3.7   1.2 ENE | 72 0.00 2.3   0.0 57.9   1.4 0.15 44.2   0.7 57.4   9.2 16.0   22.6
Ruhenstroth 5/5/26 0040 44.6   6.4 91   36 42.0   6.9 2.4   9.8 NNW | 343 4.2   13.2 NNW | 332 0.00 12.6   0.2 56.3   1.4 0.01 44.6   1.0 54.4   9.7 29.4   15.2
Double Spring 5/5/26 0040 41.2   3.1 87   14 37.5   1.6 3.8   0.6 NW | 309 6.1   1.2 NW | 309 0.00 28.5   0.1 53.4   1.6 0.23 39.0   1.8 49.8   8.4 23.0   9.6
North Topaz Lake 5/5/26 0040 43.5   6.1 82   24 38.3   3.1 2.1   6.1 W | 278 6.0   7.0 W | 270 0.00 8.9   0.0 53.8   1.5 0.17 42.3   3.9 52.8   8.2 25.0   7.3
Wild Oat Mountain 5/5/26 0040 41.7   4.5 82   18 36.6   2.1 2.7   0.5 NW | 305 6.8   0.1 WNW | 298 0.00 16.5   0.1 56.3   1.9 0.21 40.1   5.1 52.3   6.5 23.5   13.0
Smith Valley 5/5/26 0040 46.1   6.8 85   36 41.8   7.5 1.8   2.0 NE | 55 4.7   2.9 NE | 54 0.00 5.8   0.1 59.6   1.5 0.21 45.2   2.2 62.0   5.8 25.7   12.4
Pine Grove Mountain 5/5/26 0040 33.0   6.4 96   33 31.9   4.1 3.6   0.3 S | 174 7.0   1.1 S | 178 0.00 15.4   0.9 45.6   3.1 0.20 31.4   3.4 43.5   9.9 22.6   19.3
Paradise Hill 5/5/26 0040 55.9   2.8 53   16 39.1   6.8 9.6   9.2 NW | 314 15.0   11.6 NW | 312 0.00 8.0   0.0 61.2   1.0 0.00 40.2   5.4 75.8   0.5 34.6   4.0
Winnemucca 5/5/26 0040 50.8   3.0 70   26 41.4   9.2 5.7   2.0 S | 185 7.3   2.4 S | 181 0.00 6.0   0.0 59.5   0.2 0.00 44.4   7.4 75.1   0.4 30.8   7.4
NE Elko 5/5/26 0040 49.6   7.0 68   35 39.4   24.1 2.1   0.3 NNW | 348 5.5   2.1 NNW | 328 0.00 12.5   0.0 61.2   1.6 0.02 33.5   6.9 74.0   2.3 35.0   5.8
North Elko 5/5/26 0040 46.3   7.4 81   50 40.8   16.9 4.1   4.7 SW | 228 5.1   6.1 SW | 226 0.00 28.6   0.0 58.9   1.4 0.03 45.5   3.9 71.8   1.8 38.4   19.3
South Elko 5/5/26 0040 46.9   47.8 91   35 44.3   32.3 6.0   4.3 SSE | 147 8.4   5.0 SE | 140 0.00 18.8   0.0 59.0   1.6 0.00 43.4   6.5 125.7 30.9   15.4
Lamoille 1/28/26 1720 33.2   0.5 65   17 22.8   6.3 5.8   1.5 SSE | 166 7.7   1.9 SE | 139 0.00 12.2   0.0 33.4   0.1 0.02 23.5   2.0 36.5   5.9 25.6   17.4
Reid Gardner Sub 5/5/26 0040 67.2   4.5 30   10 34.5   6.3 10.5   9.9 S | 191 17.1   15.6 SSW | 192 0.00 24.7   0.3 73.6   1.4 0.00 64.2   15.9 80.6   12.4 26.2   3.8
Corn Creek 5/5/26 0040 57.7   10.0 33   9 28.5   0.9 1.2   1.7 NNW | 344 4.0   1.4 ENE | 62 0.00 4.0   0.1 73.7   3.3 0.00 57.4   4.4 75.7   7.9 41.1   2.9
Lucky Strike 5/5/26 0040 48.7   12.0 31   2 19.6   12.1 4.1   3.8 W | 260 8.9   3.7 WSW | 256 0.00 4.5   0.0 68.3   0.2 0.00 48.2   8.5 64.9   5.3 32.2   8.9
Lower Angel Peak 5/5/26 0040 38.0   16.7 39   2 15.4   16.5 4.8   1.2 SSW | 199 7.2   4.7 S | 187 0.00 10.3   0.1 56.9   0.1 0.00 37.6   8.3 59.9   5.6 25.1   6.5
Angel Peak 5/5/26 0040 36.4   6.2 40   16 14.5   13.8 2.8   15.4 NNE | 21 3.8   22.7 NNE | 24 0.00 3.5   0.0 50.4   0.0 0.00 35.8   6.3 49.0   6.5 34.5   15.8
Upper Kyle Canyon 5/5/26 0040 35.7   11.9 38   12 12.4   17.1 3.0   3.1 NNW | 346 5.6   14.3 N | 351 0.00 13.7   0.1 55.9   2.2 0.00 34.7   7.4 51.9   6.0 26.7   3.7
Mt Charleston 5/5/26 0040 37.2   10.8 39   9 14.6   14.7 2.0   0.7 WNW | 295 6.3   6.8 WNW | 297 0.00 18.4   0.1 48.2   0.3 0.00 36.5   7.7 51.4   7.0 25.3   1.2
Mid Kyle Canyon 5/5/26 0040 43.1   12.1 35   6 17.4   14.7 8.3   3.6 NW | 316 13.8   0.6 NW | 310 0.00 7.1   0.0 58.6   0.1 0.00 42.5   4.8 59.1   6.8 31.3   2.1
Blue Diamond 5/5/26 0040 55.5   13.5 45   23 34.5   5.5 11.8   5.7 NW | 304 18.4   8.1 NW | 321 0.00 3.5   0.0 70.4   0.4 0.00 54.7   8.5 70.5   11.4 29.7   1.7
Artesian Sub 5/5/26 0040 66.1   12.0 33   16 36.6   6.1 4.6   3.3 SSE | 159 8.8   6.0 SSE | 161 0.00 13.4   0.0 73.9   0.6 0.00 65.1   2.2 80.3   12.7 24.3   0.9
North Henderson 5/5/26 0040 65.9   12.0 34   17 37.0   6.5 10.4   0.2 SSW | 208 19.5   0.8 SSW | 208 0.00 8.9   0.1 79.4   0.2 0.00 65.8   3.5 79.6   12.7 27.8   4.7
Sandy Valley 5/5/26 0040 56.5   9.2 50   15 38.3   0.5 4.2   2.9 NNW | 333 7.8   1.5 NNE | 23 0.00 4.5   0.1 79.2   2.1 0.00 55.0   0.6 71.4   15.2 26.3   5.1
Searchlight 5/5/26 0040 52.6   13.3 51   22 35.0   2.2 2.7   2.2 SE | 134 4.8   2.0 SSE | 160 0.00 4.7   0.1 73.8   3.8 0.00 52.3   4.4 69.4   13.7 29.9   5.2
Laughlin 5/5/26 0040 69.8   14.2 34   10 40.2   3.7 5.0   9.2 SW | 227 7.9   12.7 SW | 221 0.00 4.1   0.1 84.0   1.7 0.00 69.0   0.4 82.7   14.2 28.0   7.4
Max     69.8 100 44.3 13.0 - 19.5 - 0.06 44.8 84.0 0.90 69.0 125.7 49.6
Avg     43.9 77 35.6 3.5 - 6.4 - 0.00 13.6 56.1 - - - -
Min     31.5 30 12.4 0.0 - 0.0 - 0.00 1.6 32.0 0.00 30.9 39.6 4.2

Latest Observation

65 Stations

Daily Data
as of 5/5/26 12:42 AM PDT
Station Date Daily Max Temp (°F) Daily Min Temp (°F) Daily Max RH (%) Daily Min RH (%) Wind Spd (mph) Wind Dir (°) Daily Max Wind (mph) Max Wind Dir (°) Time of Max Wind Daily Rain (In) Weekly Precip (In) Season Precip (In) Soil Moist (%) Fuel Temp (°F) Fuel Moisture (%) MinBV Day (V)
Hobart Mills 12/23/25 51.8   11.3 33.9   2.1 88   12 42   34 2.1   1.7 SW | 224 18.4   8.6 WSW | 240 2307 0.65 6.21 15.12 - 37.6   2.8 42   19 8.0   0.7
Prosser Dam 5/3/26 64.2   0.3 38.6   5.1 99   1 35   2 2.3   0.0 SSW | 208 31.6   14.3 SSE | 164 1426 0.06 0.35 7.80 20.9   0.3 48.1   0.6 31   11 12.6   0.0
West Incline Village 5/3/26 58.5   1.3 36.8   5.1 98   3 34   7 2.0   0.4 E | 85 28.7   15.9 S | 188 1408 0.20 0.39 6.90 30.6   0.1 44.8   5.9 40   28 12.4   0.0
Incline Village (Fairview Blvd) 5/3/26 60.3   1.7 38.6   5.7 97   3 34   7 0.8   0.1 WNW | 303 18.1   8.2 WSW | 244 1415 0.19 0.30 6.48 24.7   0.5 48.3   4.1 21   12 12.6   0.1
Incline Village (Diamond Peak) 5/3/26 54.9   1.2 36.4   8.8 96   18 41   9 1.1   4.8 SE | 128 19.5   5.7 S | 176 1358 0.02 0.02 0.43 8.4   0.1 - - 12.4   0.0
Incline Village (Mill Creek) 5/3/26 59.6   1.0 39.1   5.0 94   0 37   2 2.4   1.3 NNE | 32 21.7   6.0 N | 354 1143 0.17 0.22 6.13 9.8   0.1 - - 12.4   0.0
Incline Village (Lakeshore Blvd) 5/3/26 63.0   1.8 40.8   1.2 96   0 33   1 3.2   2.1 NE | 46 23.7   8.3 NNE | 32 1035 0.13 0.21 6.26 34.8   3.1 57.2   0.7 13   1 12.4   0.0
Glenbrook 5/3/26 60.2   1.0 40.0   0.4 92   7 37   3 2.8   1.0 E | 84 21.7   0.5 WSW | 248 1410 0.10 0.28 4.89 44.3   0.0 47.6   3.6 20   9 12.5   0.0
Zephyr Cove 5/3/26 60.1   2.8 41.1   2.0 89   14 38   8 0.0   0.3 N | 0 6.1   1.5 SSW | 211 1100 0.01 0.12 0.67 - 40.8   7.0 - 12.6   0.1
Kingsbury Grade 5/3/26 57.1   4.5 38.7   3.1 94   18 41   13 2.6   0.3 ESE | 112 23.8   7.1 SE | 131 1443 0.18 0.21 5.05 5.8   0.2 48.2   6.0 14   8 12.5   0.0
South Daggett Pass (Ridge) 5/3/26 53.1   4.9 37.2   7.8 96   28 42   8 3.4   1.2 SSE | 167 25.6   6.7 S | 171 1413 0.13 0.14 3.45 6.5   0.0 44.8   7.0 14   7 12.5   0.0
Palomino Valley 5/3/26 74.2   0.5 48.2   6.4 78   0 17   1 5.9   1.3 NW | 323 45.8   17.1 SSW | 207 1532 0.00 0.00 1.14 6.8   0.0 59.9   1.6 8   4 12.5   0.0
East Cold Springs 5/3/26 68.0   2.1 44.0   4.1 82   1 24   3 7.9   3.2 W | 273 38.4   19.8 SW | 223 1519 0.00 0.07 1.48 1.5   0.0 53.6   1.0 21   7 12.6   0.0
Peavine 5/3/26 63.9   0.4 41.9   3.4 80   5 26   0 6.5   1.5 SSW | 207 53.2   30.7 SSW | 205 1505 0.01 0.03 1.50 - - - 12.5   0.1
West Verdi Peak 5/3/26 65.0   3.5 40.9   3.7 90   3 28   3 2.4   0.6 WNW | 284 26.8   10.8 SSE | 164 1451 0.07 0.11 5.71 16.4   0.4 49.6   1.6 22   11 12.5   0.1
West Verdi 5/3/26 68.6   1.4 44.9   1.8 90   2 22   5 4.1   0.4 W | 280 36.8   17.3 SSW | 202 1502 0.15 0.15 5.42 7.8   0.1 54.1   0.9 19   8 12.6   0.0
South Verdi 5/3/26 66.0   0.0 45.8   0.0 87   4 25   2 11.5   3.6 WSW | 248 59.0   34.5 WSW | 248 1510 0.13 0.17 4.41 16.4   0.4 53.3   3.1 18   6 12.6   0.0
Northwest Reno 5/3/26 69.6   1.3 48.7   2.9 77   2 21   1 11.3   5.5 NNW | 342 60.1   31.7 WNW | 283 1514 0.03 0.07 1.07 24.0   0.4 - - 12.5   0.0
North Lawton 5/3/26 70.9   3.4 46.8   2.7 85   1 22   2 7.1   1.8 W | 276 40.2   21.4 SSW | 213 1457 0.03 0.06 1.76 - - - 12.5   0.0
West Reno (Mogul) 5/3/26 68.9   0.7 46.9   1.9 84   2 22   3 5.2   1.0 W | 277 49.7   21.6 SW | 227 1508 0.02 0.04 3.94 38.8   0.2 56.8   2.0 7   3 12.5   0.0
Caughlin (Hunter Lake Trail) 9/15/25 78.6   1.3 52.5   3.7 58   7 23   2 4.2   2.5 S | 173 13.0   20.5 NNE | 31 1309 0.00 0.32 8.05 15.7   0.1 67.4   0.5 7   1 12.7   0.0
ArrowCreek 5/3/26 69.5   1.3 47.4   1.5 72   2 22   0 4.5   0.2 WSW | 247 57.0   28.1 S | 170 1447 0.19 0.20 4.76 - - - 12.4   0.0
Tracy 5/3/26 73.8   0.3 51.1   3.1 74   7 17   2 6.9   2.5 W | 265 47.8   24.6 SSW | 204 1508 0.00 0.00 0.86 8.0   0.0 62.2   1.2 8   2 12.6   0.0
Virginia Highlands 5/3/26 65.1   0.1 44.7   3.3 74   12 25   4 4.1   0.1 WSW | 244 41.1   12.9 S | 189 1436 0.00 0.03 1.74 7.2   0.0 53.6   1.9 13   4 12.6   0.0
Virginia City 5/3/26 63.8   0.4 45.3   5.7 71   6 26   6 5.2   0.6 NNW | 341 46.7   9.6 S | 190 1425 0.00 0.00 1.45 8.4   0.1 54.1   0.8 7   2 12.6   0.0
Six Mile Canyon 9/8/25 98.8   16.5 50.2   7.6 44   3 11   1 7.2   0.3 WSW | 252 27.0   4.6 SSE | 159 1325 0.00 0.00 0.89 12.6   0.1 69.7   3.0 4   0 12.4   0.2
Mt Rose Highway 4/29/26 56.6   7.9 35.6   4.1 63   16 31   6 2.2   0.0 NW | 305 10.8   4.2 NE | 35 1152 0.00 0.08 4.93 24.3   0.3 47.6   8.0 3   0 12.4   0.0
Pleasant Valley 5/3/26 71.1   2.2 45.9   0.1 85   5 24   1 4.5   0.8 SW | 230 44.7   19.2 SSE | 154 1434 0.05 0.10 2.13 2.8   0.0 58.2   1.3 17   7 12.6   0.0
New Washoe City 5/3/26 68.1   0.6 44.2   1.9 80   2 24   1 4.6   0.7 NNE | 27 36.6   8.4 S | 191 1434 0.00 0.01 1.32 4.5   0.0 54.4   3.4 11   4 12.6   0.0
Franktown Creek 5/3/26 67.2   0.2 44.1   1.1 87   7 28   1 2.0   0.2 NW | 318 28.6   5.6 SW | 236 1430 0.06 0.08 5.41 11.2   0.0 52.3   3.7 17   8 12.6   0.0
Musgrove Creek 5/3/26 64.0   0.5 43.1   4.0 80   8 32   9 2.0   0.6 SW | 221 24.3   11.7 SSW | 205 1409 0.29 0.34 7.37 41.3   2.1 50.5   5.2 27   13 12.5   0.0
East Carson 11/22/24 63.8   0.3 41.7   4.6 85   21 21   9 14.9   6.0 SW | 224 46.6   12.7 S | 171 1835 0.05 0.05 4.48 2.5   0.0 53.9   0.3 9   0 12.6   0.0
Kings Canyon 5/3/26 65.4   2.5 45.1   0.7 79   1 31   3 3.6   0.2 SSW | 206 29.1   6.6 SW | 221 1422 0.04 0.06 3.92 15.3   0.1 53.5   4.9 13   7 12.6   0.0
Carson City (Voltaire Canyon) 5/3/26 67.3   2.7 49.2   1.6 81   11 25   0 7.9   0.4 SW | 228 64.8   36.8 S | 169 1421 1.22 1.22 1.31 2.8   0.0 - - 12.6   0.0
Jacks Valley 5/3/26 67.0   2.0 46.1   0.8 84   5 27   2 4.1   0.6 W | 280 35.5   10.1 S | 190 1421 0.03 0.05 2.02 9.7   0.2 53.0   5.5 15   8 12.6   0.0
Genoa 5/3/26 68.0   3.9 46.9   0.7 89   8 28   4 0.5   0.1 E | 81 19.6   8.9 S | 188 1411 0.04 0.05 4.79 5.6   0.2 53.8   6.4 18   9 12.3   0.0
South Genoa (Walleys Hot Springs) 5/3/26 67.3   4.8 46.2   3.3 95   11 26   2 3.6   0.1 SW | 236 37.0   15.4 S | 176 1444 0.05 0.05 3.00 13.6   0.1 54.6   5.9 13   6 12.5   0.0
SW Gardnerville (HWY 88) 5/3/26 65.0   5.5 44.0   1.9 94   12 27   1 4.4   0.2 SSW | 205 48.1   22.7 S | 185 1400 0.02 0.03 0.59 3.4   0.0 51.6   4.3 21   10 12.4   0.0
Sheridan 5/3/26 66.6   5.5 44.9   0.9 83   11 30   6 3.8   0.1 W | 260 38.6   15.0 SSW | 192 1410 0.13 0.13 3.19 2.4   0.1 53.5   5.4 14   7 12.5   0.0
Ruhenstroth 5/3/26 64.1   6.6 45.5   0.5 82   11 33   11 4.4   1.1 S | 170 44.6   22.2 S | 182 1353 0.02 0.02 1.44 12.9   0.2 51.8   6.1 20   12 12.6   0.0
Double Spring 5/3/26 58.2   7.4 40.8   1.2 91   5 35   10 3.8   0.1 N | 350 32.5   11.6 SW | 215 1343 0.21 0.33 1.87 28.6   0.2 47.3   7.0 27   19 12.6   0.0
North Topaz Lake 5/3/26 61.1   6.8 46.2   5.4 78   13 34   9 3.5   0.9 W | 276 32.3   10.2 SSW | 206 1349 0.08 0.13 1.22 9.0   0.1 50.2   8.5 21   14 12.6   0.0
Wild Oat Mountain 5/3/26 58.8   6.9 45.2   4.5 78   10 33   8 4.3   0.3 NW | 316 36.5   12.3 SW | 235 1336 0.05 0.05 1.30 16.6   0.1 50.6   6.9 13   7 12.6   0.0
Smith Valley 5/3/26 67.9   4.7 47.4   1.9 72   11 26   5 4.6   0.4 WNW | 290 38.1   17.9 S | 178 1348 0.01 0.01 0.87 5.9   0.1 54.7   5.2 9   3 12.6   0.0
Pine Grove Mountain 5/3/26 53.4   5.3 34.8   9.8 93   30 35   15 6.0   1.8 NNE | 17 41.9   17.4 ESE | 119 1314 0.10 0.12 0.46 14.5   0.0 44.1   8.1 11   6 12.6   0.1
Paradise Hill 5/3/26 76.3   1.8 45.6   6.7 53   0 13   3 7.1   2.7 NE | 56 30.7   10.8 S | 173 1434 0.00 0.00 2.33 8.0   0.0 67.8   5.1 6   0 12.6   0.0
Winnemucca 5/3/26 74.7   1.0 51.8   10.7 47   4 16   1 6.4   1.7 ENE | 72 23.4   3.4 SE | 126 1505 0.00 0.00 2.90 5.9   0.0 66.0   1.7 2   0 12.6   0.0
NE Elko 5/3/26 71.7   0.2 40.4   11.8 43   7 13   3 2.8   0.0 E | 100 29.2   12.4 ESE | 117 1307 0.00 0.00 2.29 12.5   0.0 58.4   4.2 3   0 12.6   0.0
North Elko 5/3/26 70.1   0.4 49.4   7.0 32   1 14   3 4.0   0.6 NNE | 31 19.1   0.8 NE | 52 1358 0.00 0.00 2.04 28.5   0.0 62.4   2.8 3   0 12.6   0.0
South Elko 5/3/26 - 49.9   3.5 100   10 16   1 3.8   1.3 ESE | 109 15.5   4.6 S | 175 1636 0.00 0.00 2.67 18.9   0.1 60.1   3.6 3   0 12.6   0.0
Lamoille 1/27/26 42.4   2.7 21.5   6.4 60   0 25   6 2.6   0.5 SE | 125 8.2   4.1 SE | 139 0137 0.00 0.00 0.67 12.3   0.2 26.9   1.3 11   0 8.5   2.8
Reid Gardner Sub 5/3/26 93.0   4.5 48.3   4.4 34   2 9   1 5.1   2.6 SSW | 208 30.1   16.4 SSW | 205 1622 0.00 0.00 0.56 25.2   0.2 78.2   2.1 1   0 12.6   0.0
Corn Creek 5/3/26 83.6   2.1 61.8   4.8 25   4 11   3 7.2   0.2 SE | 133 44.0   18.1 NE | 50 1442 0.00 0.00 0.63 4.0   0.0 73.9   0.9 1   0 12.5   0.0
Lucky Strike 5/3/26 70.2   1.5 56.6   2.2 34   14 11   1 10.0   1.5 S | 172 41.1   16.2 SE | 139 1510 0.00 0.00 1.21 4.4   0.0 66.1   1.1 2   0 12.6   0.0
Lower Angel Peak 5/3/26 65.5   1.4 45.9   3.9 44   11 16   2 5.7   0.8 SE | 144 31.6   8.3 SE | 145 1357 0.00 0.00 1.93 10.4   0.1 58.1   0.9 2   0 12.6   0.0
Angel Peak 5/3/26 55.5   1.9 41.8   1.7 60   27 18   0 17.4   7.6 SSE | 163 50.3   24.8 SE | 138 1357 0.01 0.01 84.71 3.5   0.0 49.4   0.6 5   0 12.5   0.0
Upper Kyle Canyon 5/3/26 57.9   1.0 42.1   4.5 51   15 23   8 5.7   0.9 ENE | 63 30.4   11.8 ESE | 121 1356 0.00 0.00 5.08 13.8   0.0 50.0   4.6 7   0 12.7   0.1
Mt Charleston 5/3/26 58.4   0.5 44.2   4.5 50   11 23   7 3.6   0.8 ENE | 58 26.6   10.3 E | 92 1038 0.00 0.00 5.28 18.4   0.1 54.0   2.4 28   0 12.6   0.0
Mid Kyle Canyon 5/3/26 65.9   1.9 47.3   4.3 42   10 17   2 8.9   0.2 SSW | 210 33.4   12.0 SSE | 161 1739 0.00 0.00 2.08 7.1   0.0 60.5   2.4 5   0 12.8   0.1
Blue Diamond 5/3/26 81.9   2.9 46.2   0.8 30   3 10   2 6.5   2.6 W | 264 28.0   11.2 WNW | 285 1814 0.00 0.00 0.85 3.5   0.0 - 3   0 12.7   0.0
Artesian Sub 5/3/26 93.0   5.0 62.9   0.1 23   3 10   4 3.7   2.5 SSE | 155 25.2   11.3 SE | 138 1527 0.00 0.00 0.35 13.4   0.1 - 0   0 12.7   0.0
North Henderson 5/3/26 92.3   4.5 62.2   2.8 32   5 10   3 6.7   3.9 S | 191 32.5   15.9 S | 184 1512 0.00 0.00 0.52 8.9   0.1 82.1   1.6 4   0 12.7   0.0
Sandy Valley 5/3/26 86.6   2.7 54.4   10.8 38   20 12   3 8.1   0.8 SSW | 192 31.4   3.6 SE | 134 1139 0.00 0.00 0.62 4.6   0.0 76.4   2.7 3   0 12.7   0.0
Searchlight 5/3/26 83.1   2.0 56.7   2.6 34   14 14   5 9.4   2.8 S | 176 35.2   12.4 SSE | 163 1427 0.00 0.00 0.51 4.7   0.0 75.7   1.0 0   0 12.6   0.0
Laughlin 5/3/26 96.9   2.2 68.7   3.5 28   5 11   3 9.8   2.6 S | 190 35.4   14.5 SSE | 157 1502 0.00 0.00 0.29 4.2   0.0 85.7   0.3 3   0 12.8   0.0
Max   96.9 68.7 100 42 17.4 - 64.8 - - 1.22 - 84.71 44.3 85.7 40 12.8
Avg   - - - - 5.1 - - - - - - - 13.1 56.7 12 -
Min   53.1 34.8 23 9 0.0 - 6.1 - - 0.00 - 0.29 1.5 40.8 0 12.3

Fosberg 6Hr Max

Map

Hourly Data

Fosberg 6Hr Max

Map

Hourly Data